| time (UTC) | temp F | wind direction | speed MPH | gust MPH | rain 1hr in | rain 24hr in | rain mn in | humidity % | barometer mb |
| 20260901063012 | 75 | 67 | 0.0 | 0.0 | 0.00 | 0.01 | 0.00 | 76 | 1018.9 |
| 20260901061503 | 74 | 67 | 0.0 | 0.0 | 0.00 | 0.01 | 0.00 | 75 | 1018.9 |
| 20260901060004 | 74 | 67 | 0.0 | 0.0 | 0.00 | 0.01 | 0.00 | 76 | 1019.1 |
| 20260901054502 | 73 | 67 | 0.0 | 0.0 | 0.00 | 0.01 | 0.00 | 75 | 1019.2 |
| 20260901053105 | 73 | 66 | 0.0 | 0.0 | 0.00 | 0.01 | 0.00 | 76 | 1019.1 |
| 20260901051602 | 73 | 66 | 0.0 | 0.0 | 0.00 | 0.01 | 0.00 | 76 | 1019.1 |
| 20260901050057 | 74 | 67 | 0.0 | 0.0 | 0.00 | 0.01 | 0.00 | 76 | 1019.2 |
| 20260901044602 | 74 | 67 | 0.0 | 0.0 | 0.00 | 0.01 | 0.00 | 76 | 1019.1 |
| 20260901043054 | 74 | 66 | 0.0 | 0.0 | 0.00 | 0.01 | 0.00 | 77 | 1018.9 |
| 20260901041554 | 74 | 66 | 0.0 | 0.0 | 0.00 | 0.01 | 0.00 | 76 | 1018.8 |
| 20260901040050 | 74 | 66 | 0.0 | 0.0 | 0.00 | 0.01 | 0.00 | 77 | 1019.0 |
| 20260901034548 | 74 | 67 | 0.0 | 0.0 | 0.00 | 0.01 | 0.01 | 77 | 1018.9 |
| 20260901033048 | 74 | 66 | 0.0 | 0.0 | 0.00 | 0.01 | 0.01 | 77 | 1018.8 |
| 20260901031547 | 74 | 66 | 0.0 | 0.0 | 0.00 | 0.01 | 0.01 | 78 | 1018.8 |
| 20260901030046 | 75 | 66 | 0.0 | 0.0 | 0.00 | 0.01 | 0.01 | 78 | 1018.8 |
| 20260901024546 | 75 | 66 | 0.0 | 0.0 | 0.00 | 0.01 | 0.01 | 78 | 1018.8 |
| 20260901023045 | 75 | 66 | 0.0 | 0.0 | 0.00 | 0.01 | 0.01 | 78 | 1018.9 |
| 20260901021545 | 75 | 66 | 0.0 | 0.0 | 0.00 | 0.01 | 0.01 | 78 | 1018.9 |
| 20260901020045 | 76 | 67 | 0.0 | 0.0 | 0.00 | 0.01 | 0.01 | 78 | 1018.9 |
| 20260901014546 | 76 | 66 | 0.0 | 0.0 | 0.00 | 0.01 | 0.01 | 77 | 1018.8 |
| 20260901013044 | 77 | 67 | 0.0 | 0.0 | 0.00 | 0.01 | 0.01 | 77 | 1018.6 |
| 20260901011543 | 77 | 67 | 0.0 | 0.0 | 0.00 | 0.01 | 0.01 | 76 | 1018.4 |
| 20260901010045 | 78 | 67 | 0.0 | 0.0 | 0.00 | 0.01 | 0.01 | 75 | 1018.2 |
| 20260901004543 | 78 | 67 | 0.0 | 0.0 | 0.00 | 0.01 | 0.01 | 75 | 1018.1 |
| 20260901003042 | 79 | 66 | 0.0 | 0.0 | 0.00 | 0.01 | 0.01 | 73 | 1017.8 |
| 20260901001541 | 80 | 66 | 0.0 | 0.0 | 0.00 | 0.01 | 0.01 | 73 | 1017.8 |
| 20260901000041 | 81 | 67 | 0.0 | 0.0 | 0.00 | 0.01 | 0.01 | 68 | 1017.7 |
| 20260831234549 | 82 | 25 | 0.0 | 0.0 | 0.00 | 0.01 | 0.01 | 67 | 1017.7 |
| 20260831233041 | 83 | 259 | 0.0 | 0.0 | 0.00 | 0.01 | 0.01 | 66 | 1017.6 |
| 20260831231539 | 85 | 315 | 0.0 | 0.0 | 0.00 | 0.01 | 0.01 | 66 | 1017.5 |
| 20260831230042 | 87 | 288 | 0.0 | 0.0 | 0.00 | 0.01 | 0.01 | 62 | 1017.5 |
| 20260831224538 | 89 | 287 | 0.0 | 0.0 | 0.00 | 0.01 | 0.01 | 55 | 1017.6 |
| 20260831223049 | 91 | 219 | 0.0 | 0.0 | 0.00 | 0.01 | 0.01 | 52 | 1017.6 |
| 20260831221537 | 92 | 279 | 0.0 | 6.0 | 0.00 | 0.01 | 0.01 | 48 | 1017.6 |
| 20260831220036 | 92 | 231 | 0.0 | 7.0 | 0.00 | 0.01 | 0.01 | 48 | 1017.5 |
| 20260831214549 | 92 | 246 | 0.0 | 7.0 | 0.00 | 0.01 | 0.01 | 51 | 1017.7 |
| 20260831213034 | 92 | 219 | 0.0 | 2.0 | 0.00 | 0.01 | 0.01 | 47 | 1017.9 |
| 20260831211535 | 92 | 219 | 0.0 | 0.0 | 0.00 | 0.01 | 0.01 | 51 | 1018.0 |
| 20260831210037 | 92 | 219 | 0.0 | 4.0 | 0.00 | 0.01 | 0.01 | 50 | 1017.9 |
| 20260831204530 | 92 | 254 | 0.0 | 0.0 | 0.00 | 0.01 | 0.01 | 52 | 1018.1 |
| 20260831203027 | 93 | 39 | 0.0 | 0.0 | 0.00 | 0.01 | 0.01 | 51 | 1018.2 |
| 20260831201524 | 92 | 280 | 0.0 | 0.0 | 0.00 | 0.01 | 0.01 | 47 | 1018.3 |
| 20260831200022 | 93 | 244 | 0.0 | 4.0 | 0.00 | 0.01 | 0.01 | 47 | 1018.4 |
| 20260831194519 | 92 | 215 | 0.0 | 2.0 | 0.00 | 0.01 | 0.01 | 50 | 1018.5 |
| 20260831193028 | 92 | 134 | 0.0 | 4.0 | 0.00 | 0.01 | 0.01 | 47 | 1018.7 |
| 20260831191514 | 92 | 142 | 0.0 | 3.0 | 0.00 | 0.01 | 0.01 | 51 | 1018.8 |
| 20260831190021 | 92 | 231 | 0.0 | 4.0 | 0.00 | 0.01 | 0.01 | 47 | 1019.0 |
| 20260831184510 | 91 | 211 | 0.0 | 3.0 | 0.00 | 0.01 | 0.01 | 50 | 1019.2 |
| 20260831183010 | 90 | 235 | 0.0 | 4.0 | 0.00 | 0.01 | 0.01 | 52 | 1019.4 |
| 20260831181508 | 90 | 78 | 0.0 | 7.0 | 0.00 | 0.01 | 0.01 | 56 | 1019.5 |
| 20260831180006 | 89 | 281 | 1.0 | 5.0 | 0.00 | 0.01 | 0.01 | 56 | 1019.5 |
| 20260831174600 | 89 | 238 | 0.0 | 0.0 | 0.00 | 0.01 | 0.01 | 62 | 1019.6 |
| 20260831173103 | 88 | 238 | 0.0 | 5.0 | 0.00 | 0.01 | 0.01 | 61 | 1019.7 |
| 20260831171558 | 88 | 236 | 0.0 | 3.0 | 0.00 | 0.01 | 0.01 | 64 | 1019.8 |
| 20260831170055 | 87 | 242 | 0.0 | 6.0 | 0.00 | 0.01 | 0.01 | 65 | 1019.9 |
| 20260831164607 | 87 | 55 | 0.0 | 4.0 | 0.00 | 0.01 | 0.01 | 70 | 1019.9 |
| 20260831163050 | 86 | 85 | 0.0 | 5.0 | 0.00 | 0.01 | 0.01 | 67 | 1020.1 |
| 20260831161601 | 86 | 234 | 0.0 | 5.0 | 0.00 | 0.01 | 0.01 | 69 | 1020.1 |
| 20260831160100 | 85 | 113 | 0.0 | 4.0 | 0.00 | 0.01 | 0.01 | 72 | 1020.4 |
| 20260831154544 | 84 | 230 | 0.0 | 5.0 | 0.00 | 0.01 | 0.01 | 73 | 1020.5 |
| 20260831153042 | 84 | 227 | 0.0 | 3.0 | 0.00 | 0.01 | 0.01 | 74 | 1020.8 |
| 20260831151538 | 83 | 227 | 0.0 | 0.0 | 0.00 | 0.01 | 0.01 | 75 | 1020.8 |
| 20260831150037 | 82 | 227 | 0.0 | 3.0 | 0.00 | 0.01 | 0.01 | 77 | 1020.9 |
| 20260831144530 | 81 | 231 | 3.0 | 3.0 | 0.00 | 0.01 | 0.01 | 77 | 1020.9 |
| 20260831143025 | 0 | 0.0 | 0.0 | 0.00 | 0.01 | 0.01 | 1020.9 | ||
| 20260831141522 | 79 | 223 | 0.0 | 5.0 | 0.00 | 0.01 | 0.01 | 76 | 1020.7 |
| 20260831140019 | 78 | 206 | 0.0 | 0.0 | 0.00 | 0.01 | 0.01 | 71 | 1020.5 |
| 20260831134519 | 76 | 206 | 0.0 | 3.0 | 0.00 | 0.01 | 0.01 | 66 | 1020.3 |
| 20260831133015 | 76 | 187 | 0.0 | 0.0 | 0.00 | 0.01 | 0.01 | 62 | 1020.4 |
| 20260831131513 | 75 | 177 | 0.0 | 0.0 | 0.00 | 0.01 | 0.01 | 60 | 1020.5 |
| 20260831130010 | 75 | 177 | 0.0 | 0.0 | 0.00 | 0.01 | 0.01 | 60 | 1020.6 |
| 20260831124507 | 73 | 177 | 0.0 | 0.0 | 0.00 | 0.01 | 0.01 | 60 | 1020.7 |
| 20260831123004 | 72 | 177 | 0.0 | 0.0 | 0.00 | 0.01 | 0.01 | 61 | 1020.6 |
| 20260831121501 | 71 | 177 | 0.0 | 0.0 | 0.00 | 0.01 | 0.01 | 61 | 1020.5 |
| 20260831120059 | 70 | 169 | 0.0 | 0.0 | 0.00 | 0.01 | 0.01 | 63 | 1020.5 |
| 20260831114556 | 68 | 138 | 0.0 | 0.0 | 0.00 | 0.01 | 0.01 | 64 | 1020.5 |
| 20260831113057 | 68 | 138 | 0.0 | 0.0 | 0.00 | 0.01 | 0.01 | 64 | 1020.4 |
| 20260831111554 | 68 | 138 | 0.0 | 0.0 | 0.00 | 0.01 | 0.01 | 65 | 1020.4 |
| 20260831110051 | 67 | 138 | 0.0 | 0.0 | 0.00 | 0.01 | 0.01 | 65 | 1020.4 |
| 20260831104551 | 67 | 138 | 0.0 | 0.0 | 0.00 | 0.01 | 0.01 | 65 | 1020.4 |
| 20260831103051 | 67 | 138 | 0.0 | 0.0 | 0.00 | 0.01 | 0.01 | 66 | 1020.2 |
| 20260831101548 | 67 | 138 | 0.0 | 0.0 | 0.01 | 0.01 | 0.01 | 66 | 1020.1 |
| 20260831100103 | 67 | 138 | 0.0 | 0.0 | 0.01 | 0.01 | 0.01 | 66 | 1020.1 |
| 20260831094548 | 68 | 138 | 0.0 | 0.0 | 0.01 | 0.01 | 0.01 | 66 | 1020.0 |
| 20260831093055 | 68 | 138 | 0.0 | 0.0 | 0.01 | 0.01 | 0.01 | 66 | 1019.9 |
| 20260831091543 | 68 | 138 | 0.0 | 0.0 | 0.00 | 0.00 | 0.00 | 66 | 1019.9 |
| 20260831090044 | 68 | 138 | 0.0 | 0.0 | 0.00 | 0.00 | 0.00 | 66 | 1019.8 |
| 20260831084540 | 68 | 138 | 0.0 | 0.0 | 0.00 | 0.00 | 0.00 | 66 | 1019.9 |
| 20260831083055 | 68 | 138 | 0.0 | 0.0 | 0.00 | 0.00 | 0.00 | 66 | 1019.9 |
| 20260831081545 | 68 | 138 | 0.0 | 0.0 | 0.00 | 0.00 | 0.00 | 67 | 1019.9 |
| 20260831074535 | 69 | 138 | 0.0 | 0.0 | 0.00 | 0.00 | 0.00 | 66 | 1019.9 |
| 20260831073033 | 69 | 138 | 0.0 | 0.0 | 0.00 | 0.00 | 0.00 | 66 | 1020.1 |
| 20260831071542 | 69 | 360 | 0.0 | 0.0 | 0.00 | 0.00 | 0.00 | 67 | 1020.2 |
| 20260831070029 | 69 | 360 | 0.0 | 0.0 | 0.00 | 0.00 | 0.00 | 67 | 1020.3 |
| 20260831064528 | 69 | 360 | 0.0 | 0.0 | 0.00 | 0.00 | 0.00 | 67 | 1020.4 |